Regional Weather Roundup
Issued by NWS

Home | Current Version | Previous Version | Graphics & Text | Print | Product List | Glossary Off
Versions: 1 2 3 4 5 6 7 8 9 10 11 12 13 14 15 16 17 18 19 20 21 22 23 24 25 26 27

000
ASUS43 KDMX 210007
RWRIA

WEATHER ROUNDUP FOR IOWA
NATIONAL WEATHER SERVICE DES MOINES IA
700 PM CDT SUN APR 20 2014

NOTE: "FAIR" INDICATES FEW OR NO CLOUDS BELOW 12,000 FEET WITH NO
SIGNIFICANT WEATHER AND/OR OBSTRUCTIONS TO VISIBILITY.

* - THESE STATIONS ARE NOT NWS STATIONS...THUS NOT UNDER NWS
QUALITY CONTROL.  THEY ALSO DO NOT REPORT WEATHER SUCH
AS PRECIPITATION OR FOG.

IAZ001>003-012>014-020>022-031>034-043>046-210100-
   NORTHWEST IOWA

CITY           SKY/WX    TMP DP  RH WIND       PRES   REMARKS
CARROLL *      SUNNY     81  50  34 SW15G21   29.88F HX  80
CHEROKEE *     CLOUDY    75  50  41 SW8       29.86F
DENISON *      MOSUNNY   77  50  38 SW25      29.88S
LE MARS *      PTSUNNY   77  52  41 S14       29.85S HAZE
ORANGE CITY *  RAIN      72  57  60 S9G24     29.87S
SHELDON *      MOSUNNY   77  54  44 SE10      29.86F
SIOUX CITY     LGT RAIN  70  57  63 W14       29.87R
6HR MIN TEMP:  71; 6HR MAX TEMP:  85; 6HR PCP: TRACE;

SPENCER        PTSUNNY   73  57  57 E5        29.87F
6HR MIN TEMP:  72; 6HR MAX TEMP:  78; 6HR PCP: TRACE;

STORM LAKE *   SUNNY     75  52  43 S10       29.88F
$$

IAZ055>058-069>071-079>083-090>094-210100-
   SOUTHWEST IOWA

CITY           SKY/WX    TMP DP  RH WIND       PRES   REMARKS
ATLANTIC *     CLOUDY    72  54  53 S23G38    29.92R
AUDUBON *      SUNNY     79  46  31 S10       29.92S
CLARINDA *     MOSUNNY   77  54  44 S17G24    29.94S
COUNCIL BLFS * LGT RAIN  64  59  82 SW12G17   29.95R
CRESTON *      SUNNY     73  54  49 S17G23    29.95S
HARLAN  *      CLOUDY    70  54  56 SW22G30   29.94R
LAMONI         CLOUDY    74  52  46 S14       29.97S
6HR MIN TEMP:  74; 6HR MAX TEMP:  79;

RED OAK *      LGT RAIN  68  59  73 W6        29.94F
SHENANDOAH *   CLOUDY    68  59  73 W21G29    29.98R
$$

IAZ047>049-059>061-072>074-084-210100-
   CENTRAL IOWA

CITY           SKY/WX    TMP DP  RH WIND       PRES   REMARKS
AMES           PTSUNNY   77  53  43 S16       29.90F
6HR MIN TEMP:  77; 6HR MAX TEMP:  82;

ANKENY *       SUNNY     77  54  44 S14G22    29.92F
CHARITON *     CLEAR     75  50  41 S14       29.96F
DES MOINES     CLOUDY    78  52  40 S10       29.93F
6HR MIN TEMP:  78; 6HR MAX TEMP:  84;

GRINNELL*      MOCLDY    75  46  35 S18       29.96F
KNOXVILLE *    CLEAR     77  50  38 S14       29.95F
MARSHALLTOWN   MOCLDY    77  52  41 S17       29.92F
6HR MIN TEMP:  77; 6HR MAX TEMP:  81;

NEWTON *       CLEAR     77  48  36 S16G22    29.95F
PELLA *        MOCLDY    77  48  36 S8        29.96F
PERRY *          N/A     79  48  34 S16G23    29.90S
$$

IAZ004>006-015-016-023>025-035-036-210100-
   NORTH CENTRAL IOWA

CITY           SKY/WX    TMP DP  RH WIND       PRES   REMARKS
ALGONA *       PTSUNNY   70  59  68 E8G14     29.90F
CLARION *      PTSUNNY   73  61  64 W3        29.89S
ESTHERVILLE    PTSUNNY   74  55  51 S8        29.88F
6HR MIN TEMP:  69; 6HR MAX TEMP:  77; 6HR PCP: TRACE;

FORT DODGE *   CLOUDY    79  54  41 SW9       29.89F
MASON CITY     TSTM      62  57  83 E7        29.94S
6HR MIN TEMP:  60; 6HR MAX TEMP:  71; 6HR PCP:  0.51;

FOREST CITY *  MOSUNNY   64  55  72 SE7       29.93S
IOWA FALLS *     N/A     77  54  44 S16       29.90F
$$

IAZ007>011-017>019-026>030-037>042-050>054-066-210100-
   NORTHEAST IOWA

CITY           SKY/WX    TMP DP  RH WIND       PRES   REMARKS
CEDAR RAPIDS   MOCLDY    76  47  35 S16       29.96F
6HR MIN TEMP:  76; 6HR MAX TEMP:  81;

CHARLES CITY * CLOUDY    66  57  72 NE8       29.92F
CLINTON *      PTCLDY    73  45  35 SW9       30.04F
DECORAH *      MOCLDY    61  61 100 E5        29.96F FOG
DUBUQUE        CLOUDY    73  46  38 S8        29.99F
6HR MIN TEMP:  73; 6HR MAX TEMP:  78;

MONTICELLO *   CLEAR     77  48  36 S10       29.97F
OELWEIN *      CLOUDY   N/A N/A N/A S13       29.95F
WATERLOO       MOCLDY    76  52  43 MISG      29.91F
6HR MIN TEMP:  69; 6HR MAX TEMP:  79;

$$

IAZ064-065-067-068-078-210100-
   EAST CENTRAL IOWA

CITY           SKY/WX    TMP DP  RH WIND       PRES   REMARKS
DAVENPORT      PTCLDY    77  44  30 S8        30.00F
6HR MIN TEMP:  77; 6HR MAX TEMP:  82;

IOWA CITY      MOCLDY    77  48  35 SW8       29.99F
6HR MIN TEMP:  77; 6HR MAX TEMP:  82;

MT. PLEASANT * MOCLDY    77  43  29 SW9       29.99F
MUSCATINE *    PTCLDY    79  48  34 SW9G18    29.98F
QUAD CITIES    PTCLDY    77  45  32 SW7       29.99F
6HR MIN TEMP:  77; 6HR MAX TEMP:  82;

$$

IAZ062-063-075>077-085>089-095>099-210100-
   SOUTHEAST IOWA

CITY           SKY/WX    TMP DP  RH WIND       PRES   REMARKS
BURLINGTON     MOCLDY    75  48  38 S12       30.00F
6HR MIN TEMP:  75; 6HR MAX TEMP:  82;

FAIRFIELD *    CLEAR     75  48  38 S7        29.99F
FORT MADISON * CLEAR     75  46  35 S8        30.02S
KEOKUK *       CLEAR     77  48  36 S7        30.00S
OSKALOOSA *      N/A     75  48  38 S10       29.98F
CENTERVILLE *  CLEAR     73  50  43 S7        30.00F
OTTUMWA        CLOUDY    76  47  35 S9        29.97F
6HR MIN TEMP:  76; 6HR MAX TEMP:  82;

WASHINGTON *   CLEAR     77  48  36 SW10      29.99S
$$

ABBREVIATIONS USED IN REMARKS
   TC - TEMPERATURES IN CELSIUS
  WCI - WIND CHILL INDEX
   HX - HEAT INDEX
  VSB - VISIBILITY
$$




USA.gov is the U.S. government's official web portal to all federal, state and local government web resources and services.